EW0415 Weather Reports


time (UTC)temp
C
wind
direction
speed
KPH
gust
KPH
rain 1hr
cm
rain 24hr
cm
rain mn
cm
humidity
%
barometer
mb
20260906091016 13 0 0.0 0.0 0.00 0.18 0.18 72 1026.6
20260906090516 13 0 0.0 0.0 0.00 0.18 0.18 72 1026.5
20260906090036 14 0 0.0 0.0 0.00 0.18 0.18 72 1026.6
20260906085518 14 0 0.0 0.0 0.00 0.18 0.18 72 1026.6
20260906085018 14 0 0.0 0.0 0.00 0.18 0.18 72 1026.7
20260906084545 14 0 0.0 0.0 0.00 0.18 0.18 71 1026.6
20260906084015 14 0 0.0 0.0 0.00 0.18 0.18 71 1026.5
20260906083517 14 0 0.0 0.0 0.00 0.18 0.18 71 1026.4
20260906083036 15 0 0.0 0.0 0.00 0.18 0.18 71 1026.4
20260906082519 15 0 0.0 0.0 0.00 0.18 0.18 71 1026.3
20260906082022 15 0 0.0 0.0 0.00 0.18 0.18 71 1026.4
20260906081533 15 0 0.0 3.2 0.00 0.18 0.18 71 1026.3
20260906081016 15 0 0.0 9.7 0.00 0.18 0.18 71 1026.2
20260906080518 15 0 0.0 9.7 0.00 0.18 0.18 70 1026.2
20260906080035 15 0 0.0 4.8 0.00 0.18 0.18 70 1026.1
20260906075520 15 274 0.0 4.8 0.00 0.18 0.18 70 1026.0
20260906075016 15 0 0.0 4.8 0.00 0.18 0.18 69 1026.1
20260906074533 15 0 0.0 3.2 0.00 0.18 0.18 69 1026.0
20260906074014 16 0 0.0 6.4 0.00 0.18 0.18 69 1025.9
20260906073519 16 275 0.0 6.4 0.00 0.18 0.18 69 1025.7
20260906073039 16 275 1.6 9.7 0.00 0.18 0.18 69 1025.6
20260906072519 16 0 3.2 9.7 0.00 0.18 0.18 68 1025.4
20260906072016 16 277 1.6 9.7 0.00 0.18 0.18 68 1025.3
20260906071541 16 280 0.0 9.7 0.00 0.18 0.18 68 1025.3
20260906071016 16 284 0.0 6.4 0.00 0.18 0.18 69 1025.2
20260906070518 16 284 0.0 6.4 0.00 0.18 0.18 69 1025.2
20260906070035 16 0 0.0 6.4 0.00 0.18 0.18 69 1025.1
20260906065517 16 284 1.6 8.0 0.00 0.18 0.18 69 1025.1
20260906065016 16 284 0.0 9.7 0.00 0.18 0.18 69 1025.1
20260906064533 16 284 3.2 9.7 0.00 0.18 0.18 70 1025.1
20260906064021 16 292 3.2 12.9 0.00 0.18 0.18 69 1025.0
20260906063516 16 292 3.2 12.9 0.00 0.18 0.18 70 1025.0
20260906063035 16 286 3.2 9.7 0.00 0.18 0.18 70 1025.1
20260906062516 16 286 1.6 12.9 0.00 0.18 0.18 70 1025.1
20260906062017 17 287 3.2 12.9 0.00 0.18 0.18 70 1025.0
20260906061536 17 268 3.2 9.7 0.00 0.18 0.18 71 1025.0
20260906061018 17 267 3.2 9.7 0.00 0.18 0.18 71 1024.9
20260906060520 16 284 3.2 12.9 0.00 0.18 0.18 71 1024.8
20260906060037 16 281 3.2 12.9 0.00 0.18 0.18 71 1024.9
20260906055517 16 292 3.2 8.0 0.00 0.18 0.18 71 1024.9
20260906055017 16 301 3.2 12.9 0.00 0.18 0.18 71 1024.9
20260906054534 16 294 3.2 12.9 0.00 0.18 0.18 71 1024.9
20260906054018 16 311 1.6 12.9 0.00 0.18 0.18 72 1024.7
20260906053515 16 284 4.8 14.5 0.00 0.18 0.18 72 1024.7
20260906053033 16 279 3.2 14.5 0.00 0.18 0.18 73 1024.7
20260906052517 16 277 3.2 14.5 0.00 0.18 0.18 74 1024.7
20260906052023 16 289 3.2 8.0 0.00 0.18 0.18 74 1024.5
20260906051534 16 289 3.2 8.0 0.00 0.18 0.18 75 1024.6
20260906051019 16 291 1.6 11.3 0.00 0.18 0.18 75 1024.6
20260906050522 15 0 1.6 11.3 0.00 0.18 0.18 76 1024.5
20260906050035 15 0 1.6 4.8 0.00 0.18 0.18 77 1024.5
20260906045517 15 292 1.6 6.4 0.00 0.18 0.18 77 1024.6
20260906045018 15 292 0.0 8.0 0.00 0.18 0.18 78 1024.4
20260906044533 15 292 1.6 8.0 0.00 0.18 0.18 78 1024.5
20260906044016 15 298 1.6 6.4 0.00 0.18 0.18 79 1024.5
20260906043516 15 0 1.6 6.4 0.00 0.18 0.18 79 1024.5
20260906043033 15 298 1.6 6.4 0.00 0.18 0.18 79 1024.5
20260906042520 15 298 1.6 6.4 0.00 0.18 0.18 80 1024.6
20260906042019 15 0 1.6 6.4 0.00 0.18 0.18 80 1024.6
20260906041531 15 303 1.6 8.0 0.00 0.18 0.18 81 1024.6
20260906041016 15 306 1.6 8.0 0.00 0.18 0.18 81 1024.7
20260906040518 15 306 1.6 8.0 0.00 0.18 0.18 81 1024.6
20260906040039 15 307 1.6 8.0 0.00 0.18 0.18 82 1024.7
20260906035516 15 307 3.2 8.0 0.00 0.18 0.18 82 1024.8
20260906035016 15 308 1.6 6.4 0.00 0.18 0.18 83 1024.7
20260906034542 14 0 0.0 6.4 0.00 0.18 0.18 83 1025.1
20260906034020 14 308 1.6 6.4 0.00 0.18 0.18 83 1024.9
20260906033519 14 307 1.6 8.0 0.00 0.18 0.18 83 1025.0
20260906033032 14 307 1.6 8.0 0.00 0.18 0.18 83 1025.1
20260906032516 14 306 1.6 6.4 0.00 0.18 0.18 84 1025.2
20260906032016 14 306 1.6 8.0 0.00 0.18 0.18 84 1025.2
20260906031531 14 307 3.2 8.0 0.00 0.18 0.18 84 1025.3
20260906031016 14 307 3.2 8.0 0.00 0.18 0.18 84 1025.5
20260906030519 14 291 0.0 9.7 0.00 0.18 0.18 84 1025.5
20260906030036 14 284 1.6 9.7 0.00 0.18 0.18 84 1025.6
20260906025518 14 286 1.6 9.7 0.00 0.18 0.18 84 1025.6
20260906025020 14 286 3.2 9.7 0.00 0.18 0.18 84 1025.7
20260906024534 14 286 1.6 9.7 0.00 0.18 0.18 85 1025.8
20260906024020 14 284 0.0 4.8 0.00 0.18 0.18 85 1025.7
20260906023518 14 0 0.0 4.8 0.03 0.18 0.18 86 1025.9
20260906023033 14 0 0.0 4.8 0.03 0.18 0.18 86 1026.0
20260906022516 14 0 1.6 4.8 0.03 0.18 0.18 86 1025.9
20260906022021 14 0 0.0 4.8 0.03 0.18 0.18 87 1025.9
20260906021537 14 0 0.0 4.8 0.03 0.18 0.18 87 1025.9
20260906021017 14 0 0.0 4.8 0.03 0.18 0.18 87 1026.0
20260906020518 14 0 0.0 4.8 0.03 0.18 0.18 87 1025.9
20260906020044 14 289 0.0 4.8 0.03 0.18 0.18 87 1025.9
20260906015519 14 0 0.0 6.4 0.05 0.18 0.18 87 1026.0
20260906015016 14 286 1.6 6.4 0.05 0.18 0.18 87 1026.1
20260906014549 14 284 1.6 6.4 0.03 0.15 0.15 87 1026.1
20260906014023 14 0 1.6 4.8 0.03 0.15 0.15 88 1026.1
20260906013519 14 0 0.0 3.2 0.00 0.13 0.13 88 1026.1
20260906013033 14 0 0.0 3.2 0.00 0.13 0.13 88 1026.0
20260906012517 13 0 0.0 4.8 0.00 0.13 0.13 88 1026.3
20260906012017 13 0 0.0 4.8 0.00 0.13 0.13 88 1026.3
20260906011538 13 0 0.0 3.2 0.00 0.13 0.13 88 1026.3
20260906011015 13 283 0.0 4.8 0.00 0.13 0.13 88 1026.4
20260906010518 13 283 0.0 6.4 0.00 0.13 0.13 88 1026.3
20260906010035 14 283 1.6 6.4 0.00 0.10 0.10 88 1026.3
20260906005519 14 284 0.0 4.8 0.00 0.10 0.10 89 1026.3
20260906005023 14 0 0.0 6.4 0.00 0.10 0.10 89 1026.2
20260906004538 13 0 0.0 6.4 0.00 0.10 0.10 89 1026.2
20260906004022 13 286 0.0 6.4 0.00 0.10 0.10 89 1026.1
20260906003519 13 0 0.0 6.4 0.00 0.10 0.10 89 1026.2
20260906003048 13 284 1.6 6.4 0.00 0.10 0.10 89 1026.2
20260906002516 13 0 0.0 0.0 0.00 0.13 0.10 90 1026.1
20260906002018 13 0 0.0 0.0 0.00 0.13 0.10 90 1026.1
20260906001535 13 0 0.0 0.0 0.00 0.13 0.10 89 1026.1
20260906001018 13 0 0.0 0.0 0.00 0.13 0.10 89 1026.1
20260906000520 13 0 0.0 0.0 0.00 0.13 0.10 89 1026.2
20260906000036 13 0 0.0 3.2 0.00 0.13 0.10 89 1026.2
20260905235520 12 0 0.0 3.2 0.00 0.13 0.10 89 1026.1
20260905235019 12 281 0.0 3.2 0.00 0.13 0.10 89 1026.1
20260905234534 12 0 0.0 3.2 0.00 0.13 0.10 89 1026.1
20260905234023 12 0 0.0 1.6 0.00 0.13 0.10 89 1025.9
20260905233519 12 0 0.0 3.2 0.03 0.13 0.10 89 1025.8
20260905233035 12 0 0.0 3.2 0.03 0.13 0.10 89 1025.7
20260905232515 12 0 0.0 1.6 0.03 0.25 0.10 89 1025.6
20260905232022 12 0 0.0 1.6 0.03 0.25 0.10 89 1025.6
20260905231539 12 0 0.0 3.2 0.03 0.25 0.10 89 1025.6
20260905231018 12 0 0.0 3.2 0.05 0.25 0.10 89 1025.5
20260905230518 12 0 0.0 0.0 0.05 0.25 0.10 89 1025.5
20260905230035 12 0 0.0 0.0 0.05 0.25 0.10 89 1025.3
20260905225517 12 0 0.0 1.6 0.05 0.25 0.10 88 1025.3
20260905225016 12 0 0.0 1.6 0.03 0.23 0.08 88 1025.2
20260905224534 12 0 0.0 1.6 0.03 0.23 0.08 88 1025.2
20260905224015 12 0 0.0 3.2 0.03 0.23 0.08 88 1025.1
20260905223518 12 0 0.0 3.2 0.00 0.20 0.08 88 1025.2
20260905223032 12 0 0.0 4.8 0.00 0.20 0.08 88 1025.1
20260905222519 12 291 1.6 4.8 0.00 0.20 0.08 88 1025.0
20260905222015 11 291 0.0 3.2 0.00 0.20 0.08 88 1025.0
20260905221537 11 0 0.0 1.6 0.00 0.18 0.05 88 1024.9
20260905221018 11 0 0.0 1.6 0.00 0.18 0.05 88 1024.8
20260905220520 11 0 0.0 1.6 0.00 0.18 0.05 88 1024.7
20260905220041 11 0 0.0 1.6 0.00 0.18 0.05 88 1024.7
20260905215519 11 0 0.0 0.0 0.00 0.18 0.05 88 1024.6
20260905215036 11 0 0.0 0.0 0.00 0.18 0.05 88 1024.5
20260905214535 11 0 0.0 1.6 0.00 0.18 0.05 87 1024.5
20260905214016 11 0 0.0 1.6 0.00 0.18 0.05 87 1024.5
20260905213520 11 0 0.0 1.6 0.00 0.18 0.05 87 1024.4
20260905213040 11 0 0.0 0.0 0.00 0.18 0.05 87 1024.3
20260905212524 11 0 0.0 0.0 0.00 0.18 0.05 87 1024.2
20260905212017 11 0 0.0 0.0 0.00 0.18 0.05 87 1024.1
20260905211539 11 0 0.0 0.0 0.00 0.18 0.05 87 1023.9
20260905211023 11 0 0.0 0.0 0.00 0.18 0.05 87 1023.7
20260905210522 11 0 0.0 0.0 0.00 0.18 0.05 87 1023.7
20260905210031 11 0 0.0 1.6 0.00 0.18 0.05 87 1023.7
20260905205522 11 0 0.0 1.6 0.00 0.18 0.05 87 1023.6
20260905205018 11 0 0.0 1.6 0.00 0.18 0.05 87 1023.6
20260905204533 10 0 0.0 1.6 0.00 0.18 0.05 87 1023.4
20260905204015 10 0 0.0 1.6 0.00 0.18 0.03 87 1023.5
20260905203520 10 0 0.0 1.6 0.00 0.18 0.03 87 1023.6
20260905203034 10 0 0.0 0.0 0.00 0.18 0.03 86 1023.5
20260905202518 10 0 0.0 0.0 0.00 0.18 0.03 86 1023.5
20260905202016 10 0 0.0 0.0 0.00 0.18 0.03 86 1023.3
20260905201538 10 0 0.0 4.8 0.00 0.18 0.03 86 1023.2
20260905201022 10 0 0.0 4.8 0.00 0.18 0.03 86 1023.3
20260905200519 10 0 0.0 0.0 0.00 0.18 0.03 86 1023.2
20260905200050 10 0 0.0 0.0 0.00 0.18 0.03 86 1023.2
20260905195520 10 0 0.0 0.0 0.00 0.18 0.03 86 1023.0
20260905195023 10 0 0.0 0.0 0.00 0.18 0.03 86 1022.8
20260905194541 10 0 0.0 0.0 0.00 0.18 0.03 86 1022.8
20260905194020 10 0 0.0 0.0 0.00 0.18 0.03 86 1022.9
20260905193517 10 0 0.0 0.0 0.00 0.18 0.03 86 1023.0
20260905193033 10 0 0.0 0.0 0.00 0.18 0.03 85 1022.9
20260905192518 10 0 0.0 0.0 0.00 0.18 0.03 85 1022.9
20260905192015 10 0 0.0 0.0 0.00 0.18 0.03 86 1022.9
20260905191534 10 0 0.0 0.0 0.00 0.18 0.03 86 1022.8
20260905191016 11 0 0.0 0.0 0.00 0.18 0.03 85 1022.8
20260905190518 11 0 0.0 0.0 0.00 0.18 0.03 85 1022.7
20260905190036 11 0 0.0 0.0 0.00 0.18 0.03 86 1022.7
20260905185515 11 0 0.0 0.0 0.00 0.18 0.03 86 1022.7
20260905185019 11 0 0.0 0.0 0.00 0.18 0.03 86 1022.7
20260905184535 11 0 0.0 0.0 0.00 0.18 0.03 86 1022.7
20260905184016 11 0 0.0 0.0 0.00 0.18 0.03 85 1022.6
20260905183519 11 0 0.0 0.0 0.00 0.18 0.03 85 1022.5
20260905183034 11 0 0.0 0.0 0.00 0.18 0.03 85 1022.3
20260905182518 11 0 0.0 0.0 0.00 0.18 0.03 86 1022.1
20260905182016 11 0 0.0 1.6 0.00 0.18 0.03 86 1022.3
20260905181538 11 0 0.0 1.6 0.00 0.18 0.03 86 1022.2
20260905181015 11 281 0.0 0.0 0.00 0.18 0.03 86 1022.1
20260905180518 11 0 0.0 0.0 0.00 0.18 0.03 86 1022.0
20260905180034 11 0 0.0 0.0 0.00 0.18 0.03 85 1022.0
20260905175523 11 0 0.0 0.0 0.00 0.18 0.03 85 1022.1
20260905175020 11 0 0.0 0.0 0.00 0.18 0.03 85 1022.1
20260905174535 11 0 0.0 4.8 0.00 0.18 0.03 85 1022.1
20260905174019 11 0 0.0 4.8 0.00 0.18 0.03 85 1022.2
20260905173520 11 0 0.0 4.8 0.00 0.18 0.03 85 1022.1
20260905173033 11 0 0.0 4.8 0.00 0.18 0.03 85 1022.3
20260905172516 11 281 0.0 3.2 0.00 0.18 0.03 85 1022.2
20260905172017 11 0 0.0 0.0 0.00 0.18 0.03 85 1022.1
20260905171533 11 0 0.0 3.2 0.00 0.18 0.03 85 1022.3
20260905171015 11 0 0.0 12.9 0.00 0.18 0.03 85 1022.3
20260905170518 11 284 0.0 12.9 0.00 0.18 0.03 85 1022.5
20260905170031 12 284 3.2 12.9 0.00 0.18 0.03 85 1022.6
20260905165520 12 244 3.2 11.3 0.00 0.18 0.03 85 1022.8
20260905165020 11 257 0.0 4.8 0.00 0.18 0.03 84 1022.5
20260905164535 12 0 0.0 1.6 0.00 0.18 0.03 84 1022.7
20260905164018 12 0 0.0 1.6 0.00 0.18 0.03 84 1022.6
20260905163521 12 0 0.0 0.0 0.03 0.18 0.03 84 1022.6
20260905163033 12 0 0.0 1.6 0.03 0.18 0.03 84 1022.6
20260905162521 12 0 0.0 1.6 0.03 0.18 0.03 84 1022.7
20260905162017 12 0 0.0 0.0 0.03 0.18 0.03 84 1022.6
20260905161535 12 0 0.0 0.0 0.03 0.18 0.03 84 1022.5
20260905161017 12 0 0.0 1.6 0.03 0.18 0.03 84 1022.7
20260905160521 12 0 0.0 3.2 0.03 0.18 0.03 84 1022.6
20260905160044 12 0 0.0 4.8 0.03 0.18 0.03 84 1022.6
20260905155519 12 0 0.0 6.4 0.03 0.18 0.03 84 1022.7
20260905155016 12 0 0.0 12.9 0.03 0.18 0.03 84 1022.7
20260905154533 12 265 3.2 14.5 0.00 0.15 0.00 84 1022.9
20260905154019 12 273 4.8 14.5 0.00 0.13 0.00 84 1022.9
20260905153516 12 275 3.2 9.7 0.00 0.13 0.00 84 1023.0
20260905153038 12 0 0.0 4.8 0.00 0.13 0.00 83 1023.0
20260905152518 12 277 1.6 9.7 0.00 0.13 0.00 83 1023.0
20260905152016 12 0 1.6 9.7 0.00 0.13 0.00 83 1022.9
20260905151536 12 276 1.6 6.4 0.00 0.13 0.00 83 1022.9
20260905151020 12 0 1.6 6.4 0.00 0.13 0.00 83 1022.7
20260905150516 12 278 0.0 9.7 0.00 0.13 0.00 83 1022.7
20260905150036 12 0 0.0 9.7 0.00 0.13 0.00 83 1022.8
20260905145521 12 0 0.0 4.8 0.00 0.13 0.00 83 1022.6
20260905145019 12 0 0.0 4.8 0.00 0.13 0.00 83 1022.7
20260905144541 12 0 0.0 3.2 0.00 0.13 0.00 83 1022.6
20260905144016 12 0 0.0 4.8 0.00 0.13 0.00 83 1022.6
20260905143516 12 285 0.0 6.4 0.00 0.13 0.00 83 1022.7
20260905143047 12 284 1.6 11.3 0.00 0.13 0.00 82 1022.7
20260905142517 13 286 1.6 12.9 0.00 0.13 0.13 82 1022.6
20260905142015 13 291 3.2 12.9 0.00 0.13 0.13 82 1022.8
20260905141536 13 302 1.6 12.9 0.00 0.13 0.13 82 1022.8
20260905141021 13 304 3.2 12.9 0.00 0.13 0.13 82 1022.7
20260905140519 13 296 1.6 6.4 0.00 0.13 0.13 82 1022.7
20260905140035 13 296 3.2 6.4 0.00 0.13 0.13 82 1022.6
20260905135516 13 297 1.6 8.0 0.00 0.13 0.13 82 1022.6
20260905135019 13 298 0.0 9.7 0.00 0.13 0.13 81 1022.7
20260905134534 13 298 1.6 11.3 0.00 0.13 0.13 81 1022.8
20260905134016 12 298 3.2 11.3 0.00 0.13 0.13 81 1022.8
20260905133517 12 271 1.6 6.4 0.00 0.13 0.13 81 1022.6
20260905133033 12 271 1.6 6.4 0.00 0.13 0.13 81 1022.5
20260905132519 13 271 0.0 6.4 0.00 0.13 0.13 81 1022.6
20260905132022 13 271 1.6 14.5 0.00 0.13 0.13 80 1022.6
20260905131546 13 272 1.6 14.5 0.00 0.13 0.13 80 1022.4
20260905131021 13 277 3.2 9.7 0.00 0.13 0.13 80 1022.5
20260905130519 13 0 1.6 6.4 0.00 0.13 0.13 80 1022.4
20260905130034 13 0 1.6 12.9 0.00 0.13 0.13 80 1022.4
20260905125522 13 273 3.2 12.9 0.00 0.13 0.13 80 1022.4
20260905125016 13 280 3.2 12.9 0.00 0.13 0.13 79 1022.3
20260905124537 13 281 1.6 12.9 0.00 0.13 0.13 79 1022.3
20260905124021 13 277 1.6 4.8 0.00 0.13 0.13 79 1022.2
20260905123516 13 0 0.0 6.4 0.00 0.13 0.13 79 1022.3
20260905123032 13 277 1.6 9.7 0.00 0.13 0.13 79 1022.1
20260905122519 13 275 1.6 9.7 0.00 0.13 0.13 78 1022.0
20260905122019 13 275 3.2 11.3 0.00 0.13 0.13 78 1022.0
20260905121531 13 275 1.6 11.3 0.00 0.13 0.13 78 1021.9
20260905121023 13 0 3.2 11.3 0.00 0.13 0.13 78 1021.8
20260905120520 13 271 3.2 11.3 0.00 0.13 0.13 77 1021.9
20260905120034 13 267 1.6 12.9 0.00 0.13 0.13 77 1021.8
20260905115517 13 265 1.6 12.9 0.00 0.13 0.13 77 1021.8
20260905115018 13 284 1.6 11.3 0.00 0.13 0.13 77 1021.8
20260905114542 13 0 3.2 12.9 0.00 0.13 0.13 77 1021.6
20260905114020 13 281 3.2 12.9 0.00 0.13 0.13 77 1021.6
20260905113518 13 292 4.8 12.9 0.00 0.13 0.13 77 1021.6
20260905113038 13 259 1.6 12.9 0.00 0.13 0.13 76 1021.6
20260905112516 13 269 0.0 11.3 0.00 0.13 0.13 76 1021.6
20260905112018 13 269 3.2 11.3 0.00 0.13 0.13 76 1021.5
20260905111533 13 0 1.6 4.8 0.00 0.13 0.13 75 1021.4
20260905111015 13 0 0.0 4.8 0.00 0.13 0.13 75 1021.4
20260905110518 13 238 0.0 4.8 0.00 0.13 0.13 75 1021.4
20260905110035 13 238 0.0 11.3 0.00 0.13 0.13 74 1021.3
20260905105517 13 236 1.6 12.9 0.00 0.13 0.13 74 1021.3
20260905105019 13 0 1.6 12.9 0.00 0.13 0.13 74 1021.2
20260905104532 13 262 1.6 6.4 0.00 0.13 0.13 73 1021.2
20260905104018 13 0 0.0 11.3 0.00 0.13 0.13 73 1021.1
20260905103516 13 0 3.2 14.5 0.00 0.13 0.13 73 1021.1
20260905103033 13 260 1.6 14.5 0.00 0.13 0.13 73 1021.0
20260905102515 13 261 4.8 14.5 0.00 0.13 0.13 73 1020.9
20260905102021 13 219 3.2 14.5 0.00 0.13 0.13 73 1020.7
20260905101542 13 257 1.6 11.3 0.00 0.13 0.13 72 1020.8
20260905101016 13 283 1.6 12.9 0.00 0.13 0.13 72 1020.6
20260905100517 13 277 3.2 12.9 0.00 0.13 0.13 72 1020.5
20260905100034 13 250 3.2 12.9 0.00 0.13 0.13 72 1020.5
20260905095519 13 246 3.2 11.3 0.00 0.13 0.13 72 1020.4
20260905095020 13 252 3.2 11.3 0.00 0.13 0.13 72 1020.2
20260905094532 13 257 3.2 14.5 0.00 0.13 0.13 71 1020.0
20260905094021 13 227 3.2 14.5 0.00 0.13 0.13 71 1019.9
20260905093517 13 269 3.2 11.3 0.00 0.13 0.13 71 1019.9
20260905093036 13 213 3.2 11.3 0.00 0.13 0.13 71 1019.9
20260905092515 14 265 3.2 11.3 0.00 0.13 0.13 70 1019.9
20260905092016 14 236 3.2 12.9 0.00 0.13 0.13 70 1019.8
20260905091532 14 264 3.2 16.1 0.00 0.13 0.13 69 1019.7